Wind_Speed
12 12 12 12 12 11 11 11 12 13 14 15 15 15 15 16 15 15 15 13 14 13 13 12 12 12 11 11 10 10 10 10 9 9 9 9 9 9 8 8 7 6 6
11 11 11 10 10 10 11 11 12 12 14 14 15 14 14 15 16 16 16 16 16 16 15 15 14 13 13 13 13 12 12 12 11 11 11 11 11 10 10 9 9 8 7
10 10 10 10 10 10 11 11 12 12 12 14 15 16 16 15 16 17 17 18 17 17 16 16 16 16 15 14 14 14 14 14 13 13 13 13 13 12 11 11 11 10 9
9 9 10 10 9 10 10 10 11 11 12 13 13 15 15 16 15 17 18 18 18 18 18 18 18 17 17 17 16 16 16 16 16 15 16 15 15 14 14 13 12 12 11
9 9 9 9 9 10 10 10 10 11 11 12 13 14 15 16 16 16 17 17 18 19 19 20 20 19 19 19 19 18 18 18 18 18 18 18 17 17 17 16 15 14 13
8 8 8 9 9 9 9 9 10 10 11 12 12 13 14 15 15 16 16 17 18 19 19 20 20 21 21 20 20 20 20 20 20 20 20 20 21 20 20 19 18 17 16
7 7 7 8 8 8 8 8 9 10 11 11 12 12 12 13 14 15 16 16 17 18 19 20 21 21 22 22 22 22 22 22 22 22 22 22 22 23 23 22 21 20 19
6 6 6 6 6 7 7 8 9 10 10 10 11 12 12 12 13 14 15 16 17 17 18 19 21 22 22 22 22 23 24 24 24 24 24 24 25 25 25 24 24 24 23
5 5 5 5 5 6 6 7 7 8 9 9 10 11 11 12 12 12 13 14 16 17 18 19 20 22 22 23 23 24 25 25 25 25 25 25 25 26 27 27 26 26 26
4 4 4 4 4 4 4 5 6 6 7 7 8 9 10 10 11 12 13 14 15 16 18 19 19 21 22 23 23 24 24 25 25 26 27 27 27 27 28 28 29 29 28
2 2 2 2 2 2 3 4 4 5 6 6 6 8 9 10 10 11 13 13 14 16 16 18 19 20 21 22 22 23 23 24 25 26 27 28 29 29 30 30 30 30 30
2 1 1 1 1 2 2 3 4 4 5 6 6 7 8 9 10 10 12 13 14 15 15 16 18 20 21 22 23 24 24 25 26 26 27 28 30 30 31 31 31 31 32
2 2 1 1 1 2 2 3 3 4 5 6 6 7 8 8 9 10 11 12 13 14 15 16 17 19 20 22 23 24 25 25 26 27 28 29 30 31 32 32 32 33 33
2 2 1 2 2 2 3 3 4 5 5 6 7 7 8 8 9 10 11 12 13 13 14 15 16 17 19 20 22 24 24 25 26 27 27 29 30 31 32 34 34 34 35
2 1 1 1 2 2 3 4 5 5 6 7 7 8 8 9 9 10 11 12 13 13 14 15 16 17 18 19 21 22 23 24 26 27 27 29 30 32 33 34 35 37 37
1 0 1 2 3 4 4 4 5 6 6 7 7 8 8 9 9 10 11 11 13 14 15 15 16 17 17 19 20 22 23 24 26 27 28 29 30 31 33 34 35 36 37
1 1 1 2 3 4 5 5 6 6 7 8 8 9 10 10 11 11 11 12 13 14 15 16 17 17 18 19 20 21 23 24 25 27 28 29 30 30 32 34 36 37 37
2 2 2 3 4 5 5 6 7 7 8 9 9 10 11 11 12 12 12 13 14 14 15 16 17 18 18 19 20 22 23 24 25 26 28 29 30 31 32 33 35 36 37
3 3 4 5 5 6 6 7 8 8 9 10 10 11 12 12 13 14 14 15 15 15 16 17 18 18 19 20 20 21 22 23 25 26 28 29 31 32 33 34 35 36 37
5 5 5 6 7 7 8 8 9 9 10 11 12 12 13 14 14 15 16 16 16 17 18 18 19 19 20 21 22 22 23 24 25 26 27 29 30 31 33 34 35 36 37
7 7 7 7 8 9 9 10 10 11 12 13 13 14 15 15 15 16 17 18 18 19 19 19 20 20 21 22 22 22 23 24 25 26 28 29 30 31 33 34 36 37 38
9 9 9 9 10 10 11 12 12 13 13 14 15 16 16 16 17 18 18 19 20 20 20 21 21 22 22 23 23 23 24 24 25 26 27 29 30 31 32 33 35 37 39
11 11 11 12 12 13 13 14 14 15 15 16 16 17 17 18 18 19 19 20 21 21 21 22 22 23 23 24 24 24 25 25 26 27 27 28 30 31 32 34 35 36 38
13 13 14 14 14 15 15 16 16 17 17 18 18 18 19 19 20 21 21 22 22 23 23 23 24 24 24 25 25 26 26 27 27 28 29 29 31 31 32 34 35 37 38
15 15 16 16 16 17 17 18 18 19 19 20 20 21 21 21 22 22 23 24 24 25 25 25 25 26 26 27 27 28 29 29 29 30 31 31 31 32 33 34 35 35 36
17 18 18 18 19 19 19 20 20 21 21 22 22 22 23 23 24 25 25 25 26 27 27 27 28 28 29 30 30 30 31 31 31 31 32 33 32 32 32 34 35 36 37
Wind_Direction
249 252 260 263 265 265 264 263 260 261 260 258 258 258 253 251 251 249 248 247 245 244 239 236 236 234 232 228 227 225 223 220 216 215 211 207 206 207 208 207 203 202 204
245 251 255 259 265 268 266 262 261 262 259 256 255 255 255 252 251 249 249 250 248 246 241 237 236 235 237 234 231 229 227 225 224 222 220 217 216 216 216 217 215 213 213
242 244 251 255 262 266 265 264 264 264 259 257 256 256 257 254 250 248 249 248 248 247 243 235 233 236 237 236 233 232 231 228 228 227 225 224 223 223 223 223 223 221 220
238 244 251 255 259 264 265 263 263 263 263 261 259 257 256 254 250 248 250 250 250 249 246 240 235 237 239 238 236 236 235 233 232 232 230 228 228 228 228 227 227 227 226
243 246 249 253 259 263 264 261 260 260 262 262 264 261 258 254 251 250 251 250 251 250 249 244 239 238 240 241 240 239 238 238 236 235 234 232 231 231 231 230 230 231 231
245 250 250 254 261 263 264 261 261 262 263 262 264 264 263 258 254 254 253 251 251 250 249 246 244 241 241 242 243 243 242 241 239 238 236 235 234 234 234 234 233 233 234
242 249 251 256 261 263 264 268 267 268 266 264 263 264 263 262 261 258 256 253 252 252 251 248 246 247 246 244 245 246 245 244 243 241 240 239 237 237 236 236 236 236 236
238 246 250 253 259 262 265 268 270 271 270 268 266 265 264 263 261 260 258 256 253 252 252 250 249 249 247 245 245 247 246 245 244 244 244 242 240 239 239 238 238 238 238
225 237 247 255 263 264 267 271 272 272 271 269 267 266 266 265 265 261 259 258 255 255 254 251 249 250 249 248 248 249 249 246 246 245 246 246 243 241 240 240 240 241 240
224 238 247 257 262 265 268 272 273 272 274 274 273 270 270 268 267 264 261 259 256 256 256 254 252 248 249 250 249 250 249 247 246 245 245 246 244 242 242 242 242 242 243
202 209 232 247 257 269 275 277 277 279 280 279 279 278 275 272 270 267 264 262 260 258 259 258 254 249 249 249 249 249 249 248 248 247 246 245 245 244 243 242 243 243 242
153 172 198 221 273 296 296 296 298 296 292 289 288 286 282 278 277 276 274 272 269 266 264 261 258 254 252 251 251 251 251 251 250 249 248 247 245 244 244 243 243 243 244
124 123 107 63 11 345 331 320 315 310 306 301 297 295 292 287 284 282 281 279 276 273 270 267 265 262 258 256 255 254 254 253 252 251 249 249 248 246 245 244 245 244 243
123 108 73 28 4 348 335 328 322 316 314 312 308 304 300 296 291 287 285 283 281 277 274 271 270 268 265 262 260 259 257 256 254 253 251 250 249 248 247 246 246 245 244
130 107 48 3 346 332 327 325 323 322 320 318 315 311 308 306 302 296 291 288 285 282 280 277 275 272 270 268 265 263 259 257 256 255 254 253 251 250 249 248 248 246 247
139 139 323 325 328 328 325 322 322 324 323 321 320 317 315 313 310 306 301 295 291 287 283 280 278 275 273 271 268 266 263 260 258 256 256 256 255 254 252 250 249 248 248
201 278 314 319 321 322 319 318 318 318 320 318 316 315 314 315 313 311 307 303 298 293 288 284 281 279 276 274 271 269 267 264 262 260 259 259 258 257 256 254 251 250 250
245 280 307 316 318 317 314 313 314 313 315 315 314 314 314 314 314 313 310 307 304 300 295 291 287 284 281 278 275 272 269 266 265 263 262 261 260 259 258 257 255 254 252
256 279 298 307 309 308 307 307 308 309 311 312 313 313 312 312 312 312 311 309 307 304 300 296 292 289 286 283 280 277 273 270 268 266 265 264 263 262 260 258 257 256 255
266 276 286 295 299 302 302 303 305 306 307 309 310 310 310 310 309 310 310 309 307 305 302 299 295 292 289 288 285 281 277 274 271 270 269 268 266 265 263 260 258 257 256
268 275 282 289 294 297 298 299 301 302 304 305 306 307 307 307 308 308 308 307 306 305 303 300 297 294 292 290 288 285 281 278 276 273 272 271 269 267 265 263 261 259 258
268 275 280 286 290 293 294 295 297 298 300 301 301 302 303 304 305 306 307 306 306 305 303 300 298 296 294 291 289 286 283 281 279 277 276 274 271 269 267 266 264 263 261
269 275 279 282 287 290 291 292 294 296 297 298 299 300 301 301 303 304 304 305 305 305 303 301 299 297 295 292 289 287 284 282 281 280 279 277 275 272 269 268 266 265 265
270 273 275 278 282 286 289 290 292 292 293 295 296 297 298 300 301 303 304 305 304 303 302 301 299 298 296 293 290 288 285 284 283 282 281 279 277 275 273 271 270 268 266
270 272 275 278 282 284 286 288 290 292 293 294 294 295 297 298 299 301 302 303 303 303 302 300 299 298 296 294 291 289 287 285 284 283 282 281 279 277 275 274 272 270 268
271 273 276 278 281 283 285 287 289 291 292 292 293 294 295 296 298 299 301 302 302 302 301 300 299 298 296 294 291 289 288 287 285 284 284 282 280 278 276 275 274 272 270
Height
5877 5878 5879 5879 5879 5879 5879 5880 5880 5881 5881 5881 5882 5883 5884 5885 5886 5887 5888 5889 5890 5891 5892 5893 5895 5896 5897 5898 5899 5900 5901 5902 5903 5904 5905 5906 5907 5908 5909 5910 5911 5911 5912
5874 5875 5876 5877 5877 5877 5877 5878 5878 5878 5878 5878 5879 5880 5880 5882 5883 5884 5885 5886 5887 5888 5889 5890 5892 5893 5895 5896 5897 5898 5899 5900 5902 5903 5904 5905 5906 5907 5908 5909 5910 5911 5911
5872 5873 5874 5875 5875 5875 5875 5875 5875 5876 5876 5876 5876 5877 5877 5878 5879 5881 5882 5883 5884 5884 5885 5886 5888 5890 5892 5893 5894 5896 5897 5898 5900 5901 5902 5903 5904 5906 5907 5908 5909 5909 5910
5870 5871 5872 5873 5872 5872 5872 5873 5873 5873 5873 5873 5873 5874 5874 5875 5876 5877 5878 5879 5880 5881 5882 5883 5885 5887 5888 5890 5891 5893 5894 5895 5897 5898 5899 5901 5902 5903 5905 5906 5907 5908 5909
5867 5869 5870 5870 5870 5870 5870 5870 5870 5871 5870 5870 5870 5870 5871 5871 5872 5873 5874 5875 5876 5878 5878 5879 5881 5883 5884 5886 5887 5889 5890 5892 5893 5895 5896 5898 5899 5901 5902 5903 5905 5906 5907
5865 5866 5867 5868 5868 5868 5868 5868 5868 5868 5868 5868 5868 5868 5868 5868 5869 5870 5870 5871 5872 5873 5874 5875 5877 5878 5880 5882 5883 5885 5886 5888 5889 5891 5892 5894 5896 5897 5899 5900 5902 5903 5904
5863 5864 5865 5865 5865 5865 5865 5865 5865 5865 5865 5865 5865 5865 5865 5865 5866 5866 5867 5868 5868 5869 5870 5871 5872 5874 5875 5877 5878 5880 5882 5883 5885 5886 5888 5889 5891 5893 5895 5897 5898 5900 5901
5861 5862 5863 5863 5863 5863 5863 5863 5863 5863 5862 5862 5862 5862 5862 5863 5862 5862 5863 5864 5864 5865 5866 5867 5868 5869 5870 5872 5873 5875 5876 5878 5880 5881 5882 5884 5886 5888 5890 5892 5894 5896 5897
5859 5860 5861 5861 5861 5861 5861 5861 5860 5860 5860 5860 5859 5859 5859 5859 5859 5859 5859 5860 5860 5861 5862 5862 5863 5864 5865 5867 5868 5870 5871 5873 5874 5875 5877 5879 5881 5883 5885 5887 5889 5890 5892
5858 5858 5859 5859 5859 5859 5859 5859 5858 5858 5858 5857 5857 5856 5857 5856 5856 5856 5856 5856 5856 5857 5857 5858 5859 5860 5860 5861 5863 5864 5865 5867 5868 5870 5871 5873 5875 5877 5879 5881 5882 5884 5886
5857 5857 5857 5858 5858 5857 5857 5857 5857 5856 5856 5855 5855 5854 5854 5853 5853 5853 5853 5853 5853 5853 5854 5854 5854 5855 5855 5856 5857 5858 5860 5861 5862 5864 5865 5867 5869 5871 5872 5874 5876 5878 5880
5855 5856 5856 5856 5856 5856 5856 5855 5855 5854 5854 5853 5853 5852 5851 5851 5850 5850 5850 5849 5849 5849 5849 5849 5850 5850 5851 5851 5852 5853 5854 5855 5856 5857 5859 5860 5862 5864 5866 5867 5869 5871 5873
5854 5855 5855 5855 5855 5855 5854 5854 5853 5853 5852 5851 5851 5850 5849 5848 5848 5847 5847 5846 5846 5846 5845 5845 5845 5845 5845 5846 5846 5847 5848 5848 5850 5851 5852 5853 5855 5856 5858 5860 5862 5863 5865
5854 5854 5854 5854 5854 5853 5853 5852 5852 5851 5850 5849 5849 5848 5847 5846 5845 5844 5844 5843 5842 5842 5841 5841 5840 5840 5840 5840 5840 5841 5841 5842 5843 5844 5845 5846 5847 5849 5850 5852 5854 5855 5857
5853 5853 5853 5853 5853 5852 5851 5851 5850 5849 5848 5847 5846 5845 5844 5843 5842 5841 5840 5840 5839 5838 5837 5836 5836 5835 5835 5834 5834 5834 5835 5835 5836 5837 5837 5838 5839 5841 5842 5843 5845 5847 5849
5852 5852 5852 5852 5851 5851 5850 5849 5848 5847 5846 5845 5844 5843 5842 5840 5839 5838 5837 5836 5835 5834 5833 5832 5831 5830 5830 5829 5828 5828 5828 5828 5829 5829 5830 5831 5831 5832 5833 5835 5836 5838 5840
5851 5851 5850 5850 5850 5849 5848 5847 5846 5845 5844 5843 5842 5841 5839 5838 5836 5835 5834 5832 5831 5830 5828 5827 5826 5825 5824 5824 5823 5822 5821 5821 5821 5822 5822 5823 5823 5824 5825 5826 5827 5828 5830
5849 5849 5849 5848 5848 5847 5846 5845 5844 5843 5842 5841 5839 5838 5836 5835 5833 5832 5830 5828 5827 5825 5824 5822 5821 5820 5819 5818 5817 5816 5815 5815 5814 5814 5814 5815 5815 5815 5816 5817 5818 5819 5820
5848 5847 5847 5846 5846 5845 5844 5843 5842 5841 5840 5838 5837 5835 5833 5832 5830 5828 5826 5824 5823 5821 5819 5817 5816 5814 5813 5811 5810 5809 5808 5808 5807 5807 5807 5806 5806 5806 5807 5807 5808 5809 5810
5845 5845 5845 5844 5843 5843 5842 5841 5839 5838 5837 5835 5834 5832 5830 5828 5826 5824 5822 5820 5818 5816 5814 5812 5810 5808 5807 5805 5803 5802 5801 5800 5799 5799 5798 5798 5797 5797 5797 5797 5798 5799 5800
5843 5842 5842 5841 5841 5840 5839 5838 5836 5835 5833 5832 5830 5828 5826 5824 5822 5820 5818 5816 5814 5811 5809 5807 5804 5802 5800 5799 5797 5795 5794 5792 5791 5791 5790 5789 5788 5788 5787 5787 5787 5788 5789
5839 5839 5839 5838 5837 5836 5835 5834 5833 5831 5830 5828 5826 5824 5822 5820 5818 5816 5813 5811 5809 5806 5803 5801 5799 5796 5794 5792 5790 5788 5786 5785 5784 5782 5781 5780 5779 5778 5777 5777 5777 5777 5777
5836 5835 5835 5834 5833 5832 5831 5830 5829 5827 5826 5824 5822 5820 5818 5815 5813 5811 5808 5806 5803 5800 5797 5795 5792 5790 5787 5785 5783 5781 5778 5777 5775 5774 5772 5771 5769 5769 5767 5767 5766 5766 5766
5832 5831 5831 5830 5829 5828 5827 5825 5824 5822 5821 5819 5817 5815 5813 5810 5808 5805 5802 5800 5797 5794 5791 5789 5786 5783 5780 5778 5775 5773 5771 5769 5767 5765 5764 5763 5760 5759 5757 5756 5755 5754 5754
5827 5826 5826 5825 5824 5823 5822 5820 5819 5817 5815 5813 5811 5809 5807 5804 5802 5799 5796 5793 5790 5787 5784 5782 5779 5776 5773 5770 5767 5765 5763 5760 5759 5756 5754 5753 5751 5749 5747 5746 5744 5743 5742
5822 5821 5821 5820 5818 5817 5816 5814 5813 5811 5809 5807 5805 5802 5800 5797 5795 5792 5789 5786 5783 5780 5777 5774 5771 5768 5765 5762 5759 5756 5753 5751 5749 5747 5744 5742 5740 5738 5738 5735 5733 5731 5730